DECAYED

CZ-3B R/B, 62189 (Decayed)

Orbit data source: Space-Track

CZ-3B R/B, 62189 was space debris originally from a launch on Tue, 03 Dec 2024 UTC launched from the Xichang Space Center, China (XSC). Debris objects in space refer to the collection of defunct objects orbiting the Earth. Examples of debris include non-operational satellites, rocket bodies, and fragments generated from explosions, collisions, or faulty payload assembly.

Loading next visibility...
Identifier
62189, 2024-227B
Orbit
Decayed
Last TLE update
2 months ago
Origin
Manufacturer
CALT
Mission
Decayed spacecraft
Bus & Motor
CZ-3A STAGE 3, Unknown motor
Mass
~2,800 kg wet, ~2,800 kg dry
Launch date (UTC)
2024-12-03 (5 months ago)
Launch vehicle
Unknown
Launch site
Xichang Space Center, China (XSC)
Object type
Payload
Rocket body
Debris
Shape & HBR
Cyl + 1 Nozzle, 12.38 m
Radar Cross Section
32.704 m², Large (>1 m²)

Expand to show TLE details & history

TLE from 2 months ago
0 CZ-3B R/B
1 62189U 24227B   25052.03828810 -.00001123  71063-5  00000+0 0  9996
2 62189  51.1975  84.9873 3177569 246.9654  81.8039  9.34586791  1663
Epoch: 2025-02-21T00:55Z
Definitive object data (Epoch: 2025-02-21T00:55:08.091Z)
Latitude
3.45266°
Longitude
-77.23162°
Altitude
3,654.199 km
Speed
6.133 km/s
True Right ascension
05h 51m 01s
True Declination
3° 26' 17"
Sunlit
Object was in daylight at TLE epoch
Visualization observer readout
Visualization observer readout
Orbital elements
Apogee altitude
6,168.086 km
Perigee altitude
117.427 km
Semi-major axis
9,520.894 km
Eccentricity
0.3177569
Inclination
51.1975°
RAAN
84.9873°
Arg. of periapsis
246.9654°
True anomaly
117.52877°
Mean anomaly
81.8039°
Eccentric anomaly
99.74721°
Mean motion
2.33629 °/min
BSTAR
Unknown
Orbital period
154.09 mins
Loading maneuver chart data...
Loading SW <> Apogee altitude chart data...
Loading historical data...
Loading historical data...
Loading historical data...
Loading historical data...
Loading historical data...
Loading historical data...
Loading historical data...
Other satellites on launch #227 in the year 2024 (2024-12-03 UTC)

CZ-3B R/B Visibility forecast

Observer location: undefined°, undefined°

Span
Click to sort rows by Start time (UTC) header in descending order
Start Az.
Max El. time (UTC)
Max El. Az.
Max El.
End time (UTC)
End Az.
56 mins2025-05-07 21:27:42.266Z304.968° NW2025-05-07 21:44:42.266Z225.551° WSW44.584°2025-05-07 22:23:42.266Z144.271° SSE
50 mins2025-05-08 00:12:42.266Z292.601° NW2025-05-08 00:31:42.266Z243.954° WSW29.48°2025-05-08 01:02:42.266Z192.849° SSW
15 mins2025-05-08 15:11:42.266Z255.577° W2025-05-08 15:14:42.266Z317.31° NNW42.21°2025-05-08 15:26:42.266Z55.539° ENE
32 mins2025-05-08 17:52:42.266Z303.621° NW2025-05-08 17:59:42.266Z12.213° NNE38.281°2025-05-08 18:24:42.266Z86.492° E
|